Weather for Mongolia

Place Alerts Temp. Conditions Humidity Pressure Wind Updated
Altai 0 26 °F 39% 30.51 in SW at 2 mph 2:00 AM +08
Altan Hil 0 41 °F Scattered Clouds 47% 30.17 in West at 9 mph 2:00 AM CST
Ara Gobiin Honduy 0 37 °F 47% 30.14 in West at 7 mph 2:00 AM +08
Arvaiheer 0 40 °F 37% 30.02 in NNW at 4 mph 2:00 AM +08
Baitag 0 32 °F 30% 30.26 in Calm 1:00 AM +07
Baruun-Urt 0 36 °F 40% 30.23 in WNW at 9 mph 2:00 AM +08
Baruunkharaa 0 30 °F 80% 30.26 in South at 4 mph 2:00 AM +08
Baruunturuun 0 29 °F 61% 30.36 in SSE at 2 mph 2:00 AM +08
Bayan Dobo Suma 0 33 °F 38% 30.33 in Calm 11:00 PM +08
Bayanhongor 0 28 °F 39% 30.46 in North at 7 mph 2:00 AM +08
Binder 0 31 °F 54% 30.23 in North at 2 mph 11:00 PM +08
Bogd 0 59 °F 11% 29.75 in WSW at 7 mph 11:00 PM +08
Choibalsan 0 37 °F 41% 30.11 in West at 11 mph 2:00 AM +08
Choir 0 33 °F 32% 30.24 in South at 4 mph 2:00 AM +08
Dalanzadgad 0 36 °F 26% 30.32 in South at 2 mph 2:00 AM +08
Dashbalbar 0 34 °F 42% 30.00 in NW at 7 mph 2:00 AM +08
Delgertsgot 0            
Doynhor Terguunii Dugang 0 30 °F 41% 30.43 in NNW at 4 mph 2:00 AM +08
Dzuunharaa 0 27 °F Mostly Cloudy 69% 30.88 in Calm 8:00 PM +08
Erdenemandal 0 30 °F 52% 30.39 in SW at 9 mph 2:00 AM +08
Erdeni Guunii Hiid 0 33 °F 44% 30.21 in WNW at 7 mph 2:00 AM +08
Gaiuut 0 22 °F 45% 30.66 in NE at 2 mph 2:00 AM +08
Gandan Huryee 0 28 °F 73% 30.42 in South at 4 mph 11:00 PM +08
Hanjargalant 0 26 °F Scattered Clouds 62% 30.34 in WNW at 4 mph 2:00 AM +08
Hargana 0 30 °F 46% 30.36 in SSW at 4 mph 2:00 AM +08
Hatgal 0 22 °F 65% 30.51 in Calm 2:00 AM +08
Hutag 0 27 °F 82% 30.35 in East at 4 mph 2:00 AM +08
Khalkh-Gol 0 36 °F 60% 30.16 in South at 16 mph 2:00 AM CST
Maanti 0 25 °F Clear 86% 30.12 in Variable at 2 mph 4:00 AM +08
Mandalgovi 0 33 °F 26% 30.32 in NNW at 2 mph 2:00 AM +08
Matad 0 40 °F 39% 30.15 in WSW at 18 mph 2:00 AM +08
Muren 0 27 °F 52% 30.41 in Calm 2:00 AM +08
Nogoonnuur 0 35 °F 31% 30.30 in West at 7 mph 11:00 PM +08
Oldzeyteyn Horshoo 0 18 °F 53% 30.68 in Calm 2:00 AM +08
Omno-Gobi 0 24 °F 51% 30.45 in SSW at 4 mph 2:00 AM +08
Rinchinlhumbe 0 23 °F Scattered Clouds 71% 30.51 in Calm 2:00 AM +08
Saikhan-Ovoo 0 29 °F 36% 30.38 in WNW at 4 mph 2:00 AM +08
Sainshand 0 29 °F 56% 30.32 in Calm 2:00 AM +08
Songiin 0 25 °F Clear 86% 30.12 in Variable at 2 mph 4:00 AM +08
Tarialan 0 32 °F 56% 30.37 in North at 4 mph 2:00 AM +08
Tataal 0 36 °F 40% 30.14 in West at 9 mph 11:00 PM +08
Tolbo 0 26 °F 58% 30.52 in Calm 11:00 PM +08
Tonhil 0 33 °F 25% 30.35 in NNW at 18 mph 11:00 PM +08
Tosontsengel 0 23 °F 54% 30.57 in North at 2 mph 2:00 AM +08
Tsogt-Ovoo 0 34 °F 21% 30.32 in Calm 2:00 AM +08
Uigi 0 26 °F 46% 30.45 in West at 2 mph 2:00 AM +08
Ulaan-Gom 0 28 °F 70% 30.35 in SSW at 7 mph 2:00 AM +08
Ulan Bator 0 25 °F Clear 86% 30.12 in Variable at 2 mph 4:00 AM +08
Uliastai 0 28 °F 42% 30.45 in SE at 4 mph 2:00 AM +08
Underkhaan 0 30 °F 50% 30.26 in WNW at 7 mph 2:00 AM +08
Urgamal 0 37 °F 24% 30.27 in NE at 9 mph 11:00 PM +08
Zamyn-Uud 0 34 °F 48% 30.34 in East at 4 mph 2:00 AM CST

Alerts Legend

Tornado Warning Tornado Warning
Tornado Watch Tornado Watch
Severe Thunderstorm Warning Severe Thunderstorm Warning
Severe Thunderstorm Watch Severe Thunderstorm Watch
High Wind Advisory High Wind Advisory
Flood Warning Flood Warning
Flood Watch / Flood Statement Flood Watch / Flood Statement
Hurricane Local Statement Hurricane Local Statement
Winter Weather Statement Winter Weather Statement
Heat Advisory Heat Advisory
Dense Fog Advisory Dense Fog Advisory
Fire Weather Advisory Fire Weather Advisory
Hurricane Watch Special Weather Statement
Hurricane Warning Record Set
Tropical Storm Watch Public Report
Tropical Storm Warning Public Statement